Miscellaneous Local Product
Issued by NWS Hastings, NE

Home | Current Version | Previous Version | Graphics & Text | Print | Product List | Glossary On
Versions: 1 2 3 4 5 6 7 8 9 10 11 12 13 14 15 16 17 18 19 20 21 22 23 24 25 26 27 28 29 30 31 32 33 34 35 36 37 38 39 40 41 42 43 44 45 46 47 48 49 50
716
AXUS43 KGID 270402
MISGRI

GID CWA HOURLY WEATHER ROUNDUP
NATIONAL WEATHER SERVICE HASTINGS NE
1100 PM CDT SUN MAR 26 2017

NOTE: "FAIR" INDICATES FEW OR NO CLOUDS BELOW 12,000 FEET WITH NO
SIGNIFICANT WEATHER AND/OR OBSTRUCTIONS TO VISIBILITY.

...SOUTH CENTRAL NEBRASKA...

CITY           SKY/WX    TMP DP  RH WIND       PRES   REMARKS
GRAND ISLAND   CLOUDY    46  45  96 NE6       29.94S
HASTINGS       CLOUDY    46  44  93 E5        29.94F
KEARNEY        CLOUDY    45  41  87 CALM      29.94S
ORD            CLOUDY    45  40  82 CALM      29.94F
YORK           CLOUDY    45  45 100 CALM      29.94F
AURORA         CLOUDY    45  44  97 CALM      29.93F
LEXINGTON      CLOUDY    44  41  89 CALM      29.93F
HOLDREGE       CLOUDY    45  43  92 CALM      29.93S
HEBRON         CLOUDY    45  43  95 NE6       29.93F

...NEBRASKA PANHANDLE...

CITY           SKY/WX    TMP DP  RH WIND       PRES   REMARKS
CHADRON        MOCLDY    37  35  92 CALM      29.96R
ALLIANCE       CLOUDY    41  37  86 NE5       29.95S
SCOTTSBLUFF    CLEAR     35  30  82 N6        29.96R WCI  30
SIDNEY         CLEAR     37  33  85 NW10      29.97R WCI  30

...WESTERN AND NORTH CENTRAL NEBRASKA...

CITY           SKY/WX    TMP DP  RH WIND       PRES   REMARKS
VALENTINE      CLOUDY    41  35  79 NW5       29.97R
AINSWORTH      CLOUDY    42  41  97 CALM      29.96S
ONEILL         CLOUDY    44  42  93 CALM      29.97S
BROKEN BOW     CLOUDY    45  42  89 E3        29.93F
IMPERIAL       MOCLDY    43  40  89 SW7       29.93R
NORTH PLATTE   CLEAR     42  38  85 E7        29.93R
MCCOOK         MOCLDY    43  41  93 SW5       29.93S

...EASTERN NEBRASKA...

CITY           SKY/WX    TMP DP  RH WIND       PRES   REMARKS
NORFOLK        CLOUDY    43  40  89 NE3       29.95F
SO SIOUX CITY  CLOUDY    46  41  82 NE5       29.97F
TEKAMAH        CLOUDY    46  42  86 NW7       29.96S
COLUMBUS       CLOUDY    45  41  87 NE8       29.95F
ALBION         CLOUDY    46  42  89 CALM      29.96S
OMAHA EPPLEY   CLOUDY    48  42  80 N3        29.94F
OFFUTT AFB     CLOUDY    47  43  86 NE5       29.93F
MILLARD        CLOUDY    49  44  83 CALM      29.94F
LINCOLN        CLOUDY    47  43  86 NE6       29.95F
NEBRASKA CITY  CLOUDY    46  45  97 CALM      29.94S
BEATRICE       DRIZZLE   46  44  92 NE3       29.93R
FALLS CITY     CLOUDY    47  44  90 N6        29.92F

...NORTHERN KANSAS...

CITY           SKY/WX    TMP DP  RH WIND       PRES   REMARKS
GOODLAND       CLEAR     36  35  96 SW5       29.95R WCI  32
HILL CITY      CLOUDY    44  44 100 CALM      29.94F
NORTON         CLOUDY    45  39  81 CALM      29.91
PHILLIPSBURG   CLOUDY    46  46 100 CALM      29.94F
HAYS             N/A     46  44  93 N10       29.93
RUSSELL        CLOUDY    46  45  96 N8        29.91S
CONCORDIA      CLOUDY    46  46 100 N6        29.92S
SALINA         LGT RAIN  50  47  89 NW6       29.91R
TOPEKA         HVY RAIN  48  48 100 NE8       29.91R FOG



USA.gov is the U.S. government's official web portal to all federal, state and local government web resources and services.